Weather History for KLXT - April, 2013

Change the Weather History Date:

Wednesday, April 17, 2013

  Actual Average (KOJC) Record (KOJC)
Temperature  
Mean Temperature 48 °F 56 °F  
Max Temperature 54 °F 66 °F 87 °F (1981)
Min Temperature 44 °F 46 °F 27 °F (1953)
Degree Days  
Heating Degree Days 16 10  
Month to date heating degree days 211  
Since 1 July heating degree days 4728  
Cooling Degree Days 0 1  
Month to date cooling degree days 9  
Year to date cooling degree days 10  
Moisture  
Dew Point 47 °F    
Average Humidity 94    
Maximum Humidity 100    
Minimum Humidity 71    
Precipitation  
Precipitation 0.82 in 0.14 in 1.15 in (1968)
Month to date precipitation 1.91  
Year to date precipitation 7.23  
Sea Level Pressure  
Sea Level Pressure 29.80 in    
Wind  
Wind Speed 10 mph (NE)    
Max Wind Speed 16 mph    
Max Gust Speed 21 mph    
Visibility 4 miles    
Events Fog , Rain , Thunderstorm    
T = Trace of Precipitation, MM = Missing Value Source: NWS Daily Summary

Daily Weather History Graph

Daily Weather History Graph

Search for Another Location

Airport or City:

Trip Planner

Search our weather history database for the weather conditions in past years. The results will help you decide how hot, cold, wet, or windy it might be!

Date:

Astronomy

Apr. 17, 2013 Rise Set
Actual Time 6:37 AM CDT 7:56 PM CDT
Civil Twilight 6:09 AM CDT 8:24 PM CDT
Nautical Twilight 5:36 AM CDT 8:57 PM CDT
Astronomical Twilight 5:01 AM CDT 9:32 PM CDT
Moon 11:53 AM CDT (4/17) 1:34 AM CDT (4/17)
Length of Visible Light 14h 14m
Length of Day
13h 19m
Waxing Crescent, 42% of the Moon is Illuminated
Apr 17
Waxing Crescent
Apr 18
First Quarter
Apr 25
Full
May 2
Last Quarter
May 9
New

Hourly Weather History & Observations

Time (CDT) Temp. Windchill Dew Point Humidity Pressure Visibility Wind Dir Wind Speed Gust Speed Precip Events Conditions
12:53 AM 45.0 °F 39.7 °F 36.0 °F 71% 30.09 in 10.0 mi ENE 10.4 mph - N/A   Overcast
1:53 AM 46.0 °F 40.2 °F 37.0 °F 71% 30.06 in 10.0 mi East 12.7 mph - N/A   Overcast
2:16 AM 44.6 °F 38.1 °F 37.4 °F 76% 30.03 in 10.0 mi East 13.8 mph - N/A   Overcast
2:53 AM 45.0 °F 39.3 °F 37.9 °F 76% 30.04 in 10.0 mi East 11.5 mph - N/A   Overcast
3:53 AM 46.0 °F 41.4 °F 39.9 °F 79% 29.99 in 10.0 mi East 9.2 mph - N/A   Overcast
4:53 AM 46.0 °F 41.0 °F 41.0 °F 83% 29.96 in 10.0 mi East 10.4 mph - N/A   Overcast
5:04 AM 46.4 °F 40.7 °F 42.8 °F 87% 29.95 in 10.0 mi East 12.7 mph - N/A   Overcast
5:53 AM 46.0 °F 41.4 °F 43.0 °F 89% 29.95 in 7.0 mi East 9.2 mph - N/A   Overcast
6:19 AM 46.4 °F 41.5 °F 44.6 °F 93% 29.93 in 5.0 mi East 10.4 mph - N/A   Overcast
6:39 AM 46.4 °F 41.1 °F 44.6 °F 93% 29.92 in 2.0 mi East 11.5 mph - N/A   Overcast
6:48 AM 46.4 °F 40.7 °F 44.6 °F 93% 29.91 in 1.5 mi East 12.7 mph - N/A   Overcast
6:53 AM 46.0 °F 40.6 °F 44.1 °F 93% 29.93 in 1.2 mi East 11.5 mph - N/A   Overcast
7:05 AM 46.4 °F 41.5 °F 44.6 °F 93% 29.91 in 0.5 mi East 10.4 mph - N/A Fog Fog
7:25 AM 46.4 °F 41.5 °F 44.6 °F 93% 29.91 in 0.2 mi ESE 10.4 mph - N/A Fog Fog
7:53 AM 46.9 °F - 46.0 °F 97% 29.94 in 0.2 mi ESE 9.2 mph - N/A Fog Fog
9:53 AM 48.9 °F - 48.0 °F 97% 29.90 in 0.2 mi East 6.9 mph - N/A Fog Fog
10:27 AM 50.0 °F - 48.2 °F 94% 29.88 in 0.5 mi ENE 3.5 mph - 0.04 in Fog , Rain Light Rain
10:42 AM 50.0 °F - 48.2 °F 94% 29.87 in 0.5 mi East 5.8 mph - 0.04 in Fog , Rain , Thunderstorm Light Rain
10:53 AM 50.0 °F - 48.9 °F 96% 29.87 in 0.5 mi East 5.8 mph - 0.08 in Fog , Rain , Thunderstorm Light Thunderstorms and Rain
10:59 AM 50.0 °F - 48.2 °F 94% 29.86 in 1.0 mi East 8.1 mph - 0.00 in Rain , Thunderstorm Light Thunderstorms and Rain
11:28 AM 50.0 °F - 48.2 °F 94% 29.84 in 1.0 mi NNE 11.5 mph - 0.03 in Rain , Thunderstorm Light Thunderstorms and Rain
11:43 AM 50.0 °F - 48.2 °F 94% 29.84 in 3.0 mi NE 10.4 mph - 0.03 in Thunderstorm Overcast
11:53 AM 50.0 °F - 48.9 °F 96% 29.86 in 1.8 mi NNE 8.1 mph - 0.03 in Rain , Thunderstorm Light Rain
12:21 PM 50.0 °F - 48.2 °F 94% 29.84 in 2.0 mi NNE 8.1 mph - 0.02 in Rain , Thunderstorm Thunderstorms and Rain
12:29 PM 50.0 °F - 48.2 °F 94% 29.84 in 2.5 mi NE 6.9 mph - 0.03 in Rain Light Rain
12:38 PM 50.0 °F - 48.2 °F 94% 29.83 in 4.0 mi ENE 10.4 mph - 0.04 in Rain Light Rain
12:53 PM 50.0 °F - 48.9 °F 96% 29.83 in 8.0 mi NE 6.9 mph - 0.04 in Rain Light Rain
1:53 PM 50.0 °F - 48.9 °F 96% 29.80 in 10.0 mi NE 10.4 mph - 0.02 in   Overcast
2:53 PM 51.1 °F - 48.9 °F 92% 29.76 in 6.0 mi ENE 8.1 mph - N/A   Overcast
3:41 PM 53.6 °F - 51.8 °F 94% 29.72 in 10.0 mi NNE 5.8 mph - N/A   Overcast
3:53 PM 53.1 °F - 51.1 °F 93% 29.73 in 10.0 mi NNE 6.9 mph - N/A   Overcast
4:53 PM 53.1 °F - 51.1 °F 93% 29.72 in 10.0 mi NNE 4.6 mph - N/A   Overcast
5:53 PM 53.1 °F - 51.1 °F 93% 29.69 in 6.0 mi North 6.9 mph - N/A   Overcast
6:09 PM 53.6 °F - 51.8 °F 94% 29.69 in 2.5 mi North 8.1 mph - 0.00 in   Overcast
6:17 PM 51.8 °F - 51.8 °F 100% 29.69 in 0.8 mi North 8.1 mph - 0.00 in   Overcast
6:40 PM 51.8 °F - 51.8 °F 100% 29.67 in 2.0 mi NNE 8.1 mph - 0.00 in   Overcast
6:50 PM 51.8 °F - 51.8 °F 100% 29.67 in 1.5 mi North 10.4 mph - 0.00 in   Overcast
6:53 PM 52.0 °F - 51.1 °F 97% 29.68 in 1.0 mi NNW 10.4 mph - 0.00 in   Overcast
6:57 PM 51.8 °F - 51.8 °F 100% 29.66 in 0.2 mi North 9.2 mph - N/A Fog Fog
7:06 PM 51.8 °F - 51.8 °F 100% 29.66 in 0.2 mi North 8.1 mph - N/A Fog Fog
7:53 PM 50.0 °F - 48.9 °F 96% 29.67 in 0.2 mi NNE 10.4 mph - N/A Fog Fog
8:26 PM 48.2 °F - 48.2 °F 100% 29.66 in 0.2 mi NNE 9.2 mph - N/A Fog , Thunderstorm Fog
8:39 PM 48.2 °F - 48.2 °F 100% 29.66 in 0.5 mi NNE 6.9 mph - 0.00 in Fog Fog
8:53 PM 48.9 °F - 48.0 °F 97% 29.68 in 0.2 mi NW 12.7 mph 20.7 mph 0.00 in Fog Fog
9:08 PM 48.2 °F - 46.4 °F 93% 29.68 in 0.2 mi NW 8.1 mph 17.3 mph N/A Fog , Thunderstorm Unknown
9:20 PM 48.2 °F - 46.4 °F 93% 29.67 in 0.2 mi NNW 8.1 mph - N/A Fog , Thunderstorm Fog
9:31 PM 48.2 °F - 46.4 °F 93% 29.67 in 0.5 mi NNW 10.4 mph - N/A Fog Fog
9:53 PM 48.0 °F - 46.9 °F 96% 29.70 in 0.5 mi NW 9.2 mph - N/A Fog , Thunderstorm Fog
10:11 PM 46.4 °F 44.3 °F 46.4 °F 100% 29.69 in 2.0 mi East 4.6 mph 16.1 mph 0.05 in Rain , Thunderstorm Light Thunderstorms and Rain
10:20 PM 46.4 °F 41.9 °F 46.4 °F 100% 29.67 in 6.0 mi North 9.2 mph - 0.05 in Rain , Thunderstorm Light Thunderstorms and Rain
10:36 PM 46.4 °F 39.8 °F 46.4 °F 100% 29.64 in 1.8 mi North 16.1 mph - 0.24 in Rain , Thunderstorm Heavy Thunderstorms and Rain
10:43 PM 46.4 °F 43.5 °F 46.4 °F 100% 29.67 in 3.0 mi NW 5.8 mph - 0.24 in Rain , Thunderstorm Light Thunderstorms and Rain
10:53 PM 46.9 °F - 46.0 °F 97% 29.68 in 9.0 mi NNW 6.9 mph - 0.24 in Rain , Thunderstorm Light Rain
11:10 PM 46.4 °F 42.9 °F 46.4 °F 100% 29.66 in 1.8 mi North 6.9 mph - 0.17 in Rain , Thunderstorm Heavy Thunderstorms and Rain
11:36 PM 46.4 °F 42.9 °F 46.4 °F 100% 29.69 in 3.0 mi NW 6.9 mph - 0.39 in Rain , Thunderstorm Thunderstorms and Rain
11:53 PM 46.9 °F - 46.0 °F 97% 29.67 in 6.0 mi NE 6.9 mph - 0.41 in Rain , Thunderstorm Light Thunderstorms and Rain
11:59 PM 46.4 °F 41.1 °F 44.6 °F 93% 29.65 in 6.0 mi NE 11.5 mph - 0.00 in Rain , Thunderstorm Light Rain